Weather Roundup
Issued by NWS Corpus Christi, TX

Home | Current Version | Previous Version | Text Only | Print | Product List | Glossary Off
Versions: 1 2 3 4 5 6 7 8 9 10 11 12 13 14 15 16 17 18 19 20 21 22 23 24 25 26 27 28 29 30 31 32 33 34 35 36 37 38 39 40 41 42 43 44 45 46 47 48 49 50

000
ASUS44 KCRP 232110
HRRCRP

SOUTH TEXAS REGIONAL WEATHER ROUNDUP
NATIONAL WEATHER SERVICE CORPUS CHRISTI TX
400 PM CDT TUE AUG 23 2016


TXZ229>244-232200-
...CORPUS CHRISTI AREA OBSERVATIONS...

CITY           SKY/WX    TMP DP  RH WIND       PRES   REMARKS
CORPUS CHRISTI MOSUNNY   96  71  44 SE18G26   30.06F HX 103
NAS CORPUS CHR MOSUNNY   92  77  61 SE18      30.08F HX 105
ROCKPORT       SUNNY     91  75  59 SE15G21   30.08F HX 101
KINGSVILLE NAS MOSUNNY   93  75  55 SE20G28   30.05F HX 104
ALICE          MOSUNNY   95  71  45 SE14G21   30.04  HX 102
FALFURRIAS     MOSUNNY   98  65  34 SE14G24   30.03F HX 101
$$

...VICTORIA AREA OBSERVATIONS...

CITY           SKY/WX    TMP DP  RH WIND       PRES   REMARKS
VICTORIA       SUNNY     92  73  53 S17       30.09F HX 100
BEEVILLE       FAIR      93  74  52 SE13G20   30.07F HX 103
PLEASANTON     SUNNY     93  69  44 SE13G23   30.08F HX  97
SAN ANTONIO    MOSUNNY   91  70  49 S15G23    30.10F HX  96
$$

...LAREDO AREA OBSERVATIONS...

CITY           SKY/WX    TMP DP  RH WIND       PRES   REMARKS
LAREDO         SUNNY     97  65  34 SE18G24   30.02F HX  99
COTULLA        SUNNY     97  65  34 S14G20    30.04F HX  99
DEL RIO        SUNNY     92  68  45 SE18G25   30.02F HX  96
MCALLEN        SUNNY    100  63  29 S20G26    30.04F HX 102
HEBBRONVILLE   MOSUNNY   96  63  32 SE14      30.06F HX  97
$$

...OTHER TEXAS OBSERVATIONS...

CITY           SKY/WX    TMP DP  RH WIND       PRES   REMARKS
BROWNSVILLE    SUNNY     94  72  48 SE16G22   30.07F HX 102
HOUSTON        PTSUNNY   85  76  74 SE20      30.10F HX  94
COL. STATION   MOSUNNY   92  75  57 SE14      30.09F HX 103
AUSTIN         MOSUNNY   93  71  48 S14       30.08F HX 100
WACO           SUNNY     94  69  44 S18       30.07F HX  99
FORT WORTH     MOSUNNY   94  70  45 S20G30    30.04F HX 100
WICHITA FALLS  PTSUNNY   94  68  42 S20G30    29.99F HX  98
LUBBOCK        PTSUNNY   92  63  38 S24G32    30.03F HX  93
EL PASO        PTSUNNY   88  60  38 N8        30.07F
$$

...MARINE OBSERVATIONS...

STATION/POSITION TIME  SKY/WX   TEMP    WIND        PRES    VSBY  WAVE   SWELL
                                AIR SEA DIR/SP/G                  HT/PER HT/PER
                 (UTC)          (F)     (DEG/KT/KT) (MB)    (MI)  (FT/S) (FT/S)
PORT ARANSAS     2100            85 88  150/ 14/ 16 1019.1F
BUOY 90 E PORT A 2050            86 87  170/  8/  8 1019.9F         3/ 6   2/ 6
BUOY 45 SE BAFFI 2050            85 86  150/ 10/ 12 1018.5F         2/ 7   2/ 7
BUOY 200 E PT IS 2050            87 88  120/  6/  6 1018.6F         2/ 5   2/ 5
BUOY 15 E GALVES 2050            86 86  150/ 10/ 12 1020.1F         2/ 6   2/ 6
$$




USA.gov is the U.S. government's official web portal to all federal, state and local government web resources and services.